Time,TemperatureF,DewpointF,PressureIn,WindDirection,WindDirectionDegrees,WindSpeedMPH,WindSpeedGustMPH,Humidity,HourlyPrecipIn,Conditions,Clouds,dailyrainin,SoftwareType,DateUTC
2013-08-17 00:05:00,59.2,53.0,30.10,WSW,250,0.0,2.0,80,0.00,,,0.00,Wunderground v.1.15,2013-08-17 04:05:00,
2013-08-17 00:10:00,59.1,53.3,30.11,WSW,250,0.0,2.0,81,0.00,,,0.00,Wunderground v.1.15,2013-08-17 04:10:00,
2013-08-17 00:15:00,59.1,53.6,30.11,WSW,250,0.0,2.0,82,0.00,,,0.00,Wunderground v.1.15,2013-08-17 04:15:00,
2013-08-17 00:20:00,59.0,53.5,30.11,WSW,250,0.0,2.0,82,0.00,,,0.00,Wunderground v.1.15,2013-08-17 04:20:00,
2013-08-17 00:25:00,58.9,53.4,30.11,WSW,250,0.0,2.0,82,0.00,,,0.00,Wunderground v.1.15,2013-08-17 04:25:00,
2013-08-17 00:30:00,58.8,53.6,30.11,WSW,250,0.0,2.0,83,0.00,,,0.00,Wunderground v.1.15,2013-08-17 04:30:00,
2013-08-17 00:35:00,58.7,53.5,30.12,WSW,250,0.0,2.0,83,0.00,,,0.00,Wunderground v.1.15,2013-08-17 04:35:00,
2013-08-17 00:40:00,58.6,53.5,30.12,WSW,250,0.0,2.0,83,0.00,,,0.00,Wunderground v.1.15,2013-08-17 04:40:00,
2013-08-17 00:45:00,58.4,53.6,30.12,WSW,250,0.0,2.0,84,0.00,,,0.00,Wunderground v.1.15,2013-08-17 04:45:00,
2013-08-17 00:50:00,58.1,53.0,30.12,WSW,250,0.0,2.0,83,0.00,,,0.00,Wunderground v.1.15,2013-08-17 04:50:00,
2013-08-17 01:00:00,58.1,52.6,30.12,WSW,250,0.0,2.0,82,0.00,,,0.00,Wunderground v.1.15,2013-08-17 05:00:00,
2013-08-17 01:05:00,58.3,53.2,30.12,WSW,253,0.0,2.0,83,0.00,,,0.00,Wunderground v.1.15,2013-08-17 05:05:00,
2013-08-17 01:10:00,58.2,53.1,30.12,NNW,344,1.0,1.0,83,0.00,,,0.00,Wunderground v.1.15,2013-08-17 05:10:00,
2013-08-17 01:15:00,58.1,53.0,30.13,NE,45,1.0,2.0,83,0.00,,,0.00,Wunderground v.1.15,2013-08-17 05:15:00,
2013-08-17 01:20:00,57.9,52.8,30.13,NNE,21,1.0,1.0,83,0.00,,,0.00,Wunderground v.1.15,2013-08-17 05:20:00,
2013-08-17 01:25:00,57.9,53.1,30.13,NNE,28,1.0,2.0,84,0.00,,,0.00,Wunderground v.1.15,2013-08-17 05:25:00,
2013-08-17 01:35:00,58.0,52.9,30.13,ENE,66,1.0,2.0,83,0.00,,,0.00,Wunderground v.1.15,2013-08-17 05:35:00,
2013-08-17 01:40:00,58.0,52.9,30.13,ENE,66,0.0,2.0,83,0.00,,,0.00,Wunderground v.1.15,2013-08-17 05:40:00,
2013-08-17 01:45:00,58.1,52.6,30.13,WNW,291,0.0,2.0,82,0.00,,,0.00,Wunderground v.1.15,2013-08-17 05:45:00,
2013-08-17 01:50:00,58.2,53.4,30.13,WNW,291,0.0,2.0,84,0.00,,,0.00,Wunderground v.1.15,2013-08-17 05:50:00,
2013-08-17 01:55:00,58.1,53.0,30.14,WNW,291,0.0,2.0,83,0.00,,,0.00,Wunderground v.1.15,2013-08-17 05:55:00,
2013-08-17 02:05:00,57.7,52.9,30.13,WNW,295,0.0,2.0,84,0.00,,,0.00,Wunderground v.1.15,2013-08-17 06:05:00,
2013-08-17 02:10:00,57.6,52.8,30.14,WNW,291,0.0,2.0,84,0.00,,,0.00,Wunderground v.1.15,2013-08-17 06:10:00,
2013-08-17 02:15:00,57.3,52.5,30.14,WNW,291,0.0,2.0,84,0.00,,,0.00,Wunderground v.1.15,2013-08-17 06:15:00,
2013-08-17 02:20:00,57.1,52.6,30.14,WNW,291,0.0,2.0,85,0.00,,,0.00,Wunderground v.1.15,2013-08-17 06:20:00,
2013-08-17 02:30:00,56.5,52.4,30.14,WNW,291,0.0,2.0,86,0.00,,,0.00,Wunderground v.1.15,2013-08-17 06:30:00,
2013-08-17 02:35:00,56.2,52.1,30.14,WNW,291,0.0,2.0,86,0.00,,,0.00,Wunderground v.1.15,2013-08-17 06:35:00,
2013-08-17 02:45:00,56.0,52.5,30.14,WNW,291,0.0,2.0,88,0.00,,,0.00,Wunderground v.1.15,2013-08-17 06:45:00,
2013-08-17 02:50:00,55.9,52.1,30.14,WNW,291,0.0,2.0,87,0.00,,,0.00,Wunderground v.1.15,2013-08-17 06:50:00,
2013-08-17 02:55:00,55.7,52.2,30.14,WNW,291,0.0,2.0,88,0.00,,,0.00,Wunderground v.1.15,2013-08-17 06:55:00,
2013-08-17 03:00:00,55.5,52.0,30.15,WNW,291,0.0,2.0,88,0.00,,,0.00,Wunderground v.1.15,2013-08-17 07:00:00,
2013-08-17 03:05:00,55.4,52.2,30.14,WNW,291,0.0,2.0,89,0.00,,,0.00,Wunderground v.1.15,2013-08-17 07:05:00,
2013-08-17 03:15:00,55.1,52.2,30.14,WNW,291,0.0,2.0,90,0.00,,,0.00,Wunderground v.1.15,2013-08-17 07:15:00,
2013-08-17 03:20:00,55.3,52.4,30.14,WNW,291,0.0,2.0,90,0.00,,,0.00,Wunderground v.1.15,2013-08-17 07:20:00,
2013-08-17 03:25:00,55.3,52.4,30.14,WNW,291,0.0,2.0,90,0.00,,,0.00,Wunderground v.1.15,2013-08-17 07:25:00,
2013-08-17 03:30:00,55.4,52.5,30.14,WNW,291,0.0,2.0,90,0.00,,,0.00,Wunderground v.1.15,2013-08-17 07:30:00,
2013-08-17 03:35:00,55.4,52.5,30.14,WNW,291,0.0,2.0,90,0.00,,,0.00,Wunderground v.1.15,2013-08-17 07:35:00,
2013-08-17 03:45:00,55.2,52.6,30.14,WNW,291,0.0,2.0,91,0.00,,,0.00,Wunderground v.1.15,2013-08-17 07:45:00,
2013-08-17 03:50:00,55.2,52.6,30.14,WNW,291,0.0,2.0,91,0.00,,,0.00,Wunderground v.1.15,2013-08-17 07:50:00,
2013-08-17 04:00:00,55.2,52.9,30.14,WNW,291,0.0,2.0,92,0.00,,,0.00,Wunderground v.1.15,2013-08-17 08:00:00,
2013-08-17 04:05:00,55.3,53.0,30.14,WNW,291,0.0,2.0,92,0.00,,,0.00,Wunderground v.1.15,2013-08-17 08:05:00,
2013-08-17 04:10:00,55.3,52.7,30.14,WNW,291,0.0,2.0,91,0.00,,,0.00,Wunderground v.1.15,2013-08-17 08:10:00,
2013-08-17 04:20:00,55.1,52.5,30.14,WNW,291,0.0,2.0,91,0.00,,,0.00,Wunderground v.1.15,2013-08-17 08:20:00,
2013-08-17 04:25:00,54.9,52.3,30.14,WNW,291,0.0,2.0,91,0.00,,,0.00,Wunderground v.1.15,2013-08-17 08:25:00,
2013-08-17 04:30:00,54.7,52.4,30.14,WNW,291,0.0,2.0,92,0.00,,,0.00,Wunderground v.1.15,2013-08-17 08:30:00,
2013-08-17 04:35:00,54.5,52.2,30.14,WNW,291,0.0,2.0,92,0.00,,,0.00,Wunderground v.1.15,2013-08-17 08:35:00,
2013-08-17 04:40:00,54.4,52.4,30.15,WNW,291,0.0,2.0,93,0.00,,,0.00,Wunderground v.1.15,2013-08-17 08:40:00,
2013-08-17 04:45:00,54.2,52.2,30.15,WNW,291,0.0,2.0,93,0.00,,,0.00,Wunderground v.1.15,2013-08-17 08:45:00,
2013-08-17 04:55:00,54.0,52.3,30.15,WNW,291,0.0,2.0,94,0.00,,,0.00,Wunderground v.1.15,2013-08-17 08:55:00,
2013-08-17 05:00:00,53.9,52.2,30.15,WNW,291,0.0,2.0,94,0.00,,,0.00,Wunderground v.1.15,2013-08-17 09:00:00,
2013-08-17 05:05:00,53.9,52.5,30.15,WNW,291,0.0,2.0,95,0.00,,,0.00,Wunderground v.1.15,2013-08-17 09:05:00,
2013-08-17 05:10:00,53.9,52.5,30.15,WNW,291,0.0,2.0,95,0.00,,,0.00,Wunderground v.1.15,2013-08-17 09:10:00,
2013-08-17 05:15:00,53.8,52.4,30.16,WNW,291,0.0,2.0,95,0.00,,,0.00,Wunderground v.1.15,2013-08-17 09:15:00,
2013-08-17 05:25:00,53.7,52.0,30.16,WNW,291,0.0,2.0,94,0.00,,,0.00,Wunderground v.1.15,2013-08-17 09:25:00,
2013-08-17 05:30:00,53.7,52.0,30.16,WNW,291,0.0,2.0,94,0.00,,,0.00,Wunderground v.1.15,2013-08-17 09:30:00,
2013-08-17 05:35:00,53.6,51.9,30.16,WNW,291,0.0,2.0,94,0.00,,,0.00,Wunderground v.1.15,2013-08-17 09:35:00,
2013-08-17 05:40:00,53.5,51.8,30.16,WNW,291,0.0,2.0,94,0.00,,,0.00,Wunderground v.1.15,2013-08-17 09:40:00,
2013-08-17 05:50:00,53.2,51.5,30.16,WNW,291,0.0,2.0,94,0.00,,,0.00,Wunderground v.1.15,2013-08-17 09:50:00,
2013-08-17 05:55:00,53.0,51.3,30.17,WNW,291,0.0,2.0,94,0.00,,,0.00,Wunderground v.1.15,2013-08-17 09:55:00,
2013-08-17 06:00:00,52.8,51.1,30.17,WNW,291,0.0,2.0,94,0.00,,,0.00,Wunderground v.1.15,2013-08-17 10:00:00,
2013-08-17 06:10:00,52.6,51.2,30.17,WNW,291,0.0,2.0,95,0.00,,,0.00,Wunderground v.1.15,2013-08-17 10:10:00,
2013-08-17 06:15:00,52.7,51.6,30.18,WNW,291,0.0,2.0,96,0.00,,,0.00,Wunderground v.1.15,2013-08-17 10:15:00,
2013-08-17 06:20:00,52.7,51.6,30.18,WNW,291,0.0,2.0,96,0.00,,,0.00,Wunderground v.1.15,2013-08-17 10:20:00,
2013-08-17 06:25:00,52.7,51.6,30.18,WNW,291,0.0,2.0,96,0.00,,,0.00,Wunderground v.1.15,2013-08-17 10:25:00,
2013-08-17 06:35:00,52.8,51.7,30.18,WNW,291,0.0,2.0,96,0.00,,,0.00,Wunderground v.1.15,2013-08-17 10:35:00,
2013-08-17 06:40:00,52.9,51.8,30.18,WNW,291,0.0,2.0,96,0.00,,,0.00,Wunderground v.1.15,2013-08-17 10:40:00,
2013-08-17 06:45:00,52.9,51.8,30.18,WNW,291,0.0,2.0,96,0.00,,,0.00,Wunderground v.1.15,2013-08-17 10:45:00,
2013-08-17 06:50:00,52.9,51.8,30.18,WNW,291,0.0,2.0,96,0.00,,,0.00,Wunderground v.1.15,2013-08-17 10:50:00,
2013-08-17 06:55:00,52.8,51.7,30.18,WNW,291,0.0,2.0,96,0.00,,,0.00,Wunderground v.1.15,2013-08-17 10:55:00,
2013-08-17 07:05:00,52.9,51.8,30.18,WNW,291,0.0,2.0,96,0.00,,,0.00,Wunderground v.1.15,2013-08-17 11:05:00,
2013-08-17 07:10:00,52.9,51.8,30.18,WNW,291,0.0,2.0,96,0.00,,,0.00,Wunderground v.1.15,2013-08-17 11:10:00,
2013-08-17 07:15:00,53.1,52.0,30.18,WNW,291,0.0,2.0,96,0.00,,,0.00,Wunderground v.1.15,2013-08-17 11:15:00,
2013-08-17 07:20:00,53.2,52.1,30.18,WNW,291,0.0,2.0,96,0.00,,,0.00,Wunderground v.1.15,2013-08-17 11:20:00,
2013-08-17 07:25:00,53.3,52.2,30.18,WNW,291,0.0,2.0,96,0.00,,,0.00,Wunderground v.1.15,2013-08-17 11:25:00,
2013-08-17 07:30:00,53.4,52.3,30.18,WNW,291,0.0,2.0,96,0.00,,,0.00,Wunderground v.1.15,2013-08-17 11:30:00,
2013-08-17 07:40:00,53.8,52.7,30.18,WNW,291,0.0,2.0,96,0.00,,,0.00,Wunderground v.1.15,2013-08-17 11:40:00,
2013-08-17 07:45:00,54.0,52.9,30.18,WNW,291,0.0,2.0,96,0.00,,,0.00,Wunderground v.1.15,2013-08-17 11:45:00,
2013-08-17 07:50:00,54.2,52.8,30.18,WNW,291,0.0,2.0,95,0.00,,,0.00,Wunderground v.1.15,2013-08-17 11:50:00,
2013-08-17 07:55:00,54.6,53.2,30.19,WNW,291,0.0,2.0,95,0.00,,,0.00,Wunderground v.1.15,2013-08-17 11:55:00,
2013-08-17 08:00:00,55.2,53.5,30.19,WNW,291,0.0,2.0,94,0.00,,,0.00,Wunderground v.1.15,2013-08-17 12:00:00,
2013-08-17 08:05:00,55.7,53.4,30.19,WNW,291,0.0,2.0,92,0.00,,,0.00,Wunderground v.1.15,2013-08-17 12:05:00,
2013-08-17 08:15:00,56.5,53.9,30.19,WNW,291,0.0,2.0,91,0.00,,,0.00,Wunderground v.1.15,2013-08-17 12:15:00,
2013-08-17 08:20:00,56.8,53.9,30.19,WNW,291,0.0,2.0,90,0.00,,,0.00,Wunderground v.1.15,2013-08-17 12:20:00,
2013-08-17 08:25:00,57.2,54.6,30.19,WNW,291,0.0,2.0,91,0.00,,,0.00,Wunderground v.1.15,2013-08-17 12:25:00,
2013-08-17 08:30:00,57.6,54.7,30.19,WNW,291,0.0,2.0,90,0.00,,,0.00,Wunderground v.1.15,2013-08-17 12:30:00,
2013-08-17 08:35:00,58.4,56.1,30.19,WNW,291,0.0,2.0,92,0.00,,,0.00,Wunderground v.1.15,2013-08-17 12:35:00,
2013-08-17 08:45:00,60.6,56.4,30.19,WNW,291,0.0,2.0,86,0.00,,,0.00,Wunderground v.1.15,2013-08-17 12:45:00,
2013-08-17 08:50:00,61.6,56.4,30.19,WNW,291,0.0,2.0,83,0.00,,,0.00,Wunderground v.1.15,2013-08-17 12:50:00,
2013-08-17 09:00:00,62.8,56.9,30.19,WNW,291,0.0,2.0,81,0.00,,,0.00,Wunderground v.1.15,2013-08-17 13:00:00,
2013-08-17 09:05:00,63.1,56.8,30.19,WNW,291,0.0,2.0,80,0.00,,,0.00,Wunderground v.1.15,2013-08-17 13:05:00,
2013-08-17 09:10:00,63.9,57.6,30.19,WNW,291,0.0,2.0,80,0.00,,,0.00,Wunderground v.1.15,2013-08-17 13:10:00,
2013-08-17 09:20:00,64.5,57.8,30.19,WSW,247,0.0,2.0,79,0.00,,,0.00,Wunderground v.1.15,2013-08-17 13:20:00,
2013-08-17 09:25:00,64.5,57.8,30.19,WSW,247,0.0,2.0,79,0.00,,,0.00,Wunderground v.1.15,2013-08-17 13:25:00,
2013-08-17 09:30:00,64.7,57.7,30.20,WSW,244,1.0,2.0,78,0.00,,,0.00,Wunderground v.1.15,2013-08-17 13:30:00,
2013-08-17 09:35:00,65.0,58.0,30.19,WSW,244,1.0,2.0,78,0.00,,,0.00,Wunderground v.1.15,2013-08-17 13:35:00,
2013-08-17 09:40:00,65.5,57.7,30.19,WSW,241,0.0,2.0,76,0.00,,,0.00,Wunderground v.1.15,2013-08-17 13:40:00,
2013-08-17 09:45:00,66.0,58.6,30.19,WSW,241,0.0,2.0,77,0.00,,,0.00,Wunderground v.1.15,2013-08-17 13:45:00,
2013-08-17 09:55:00,66.6,58.8,30.19,WSW,241,1.0,2.0,76,0.00,,,0.00,Wunderground v.1.15,2013-08-17 13:55:00,
2013-08-17 10:00:00,67.3,59.5,30.19,WSW,241,0.0,2.0,76,0.00,,,0.00,Wunderground v.1.15,2013-08-17 14:00:00,
2013-08-17 10:10:00,68.5,59.1,30.19,WSW,240,0.0,2.0,72,0.00,,,0.00,Wunderground v.1.15,2013-08-17 14:10:00,
2013-08-17 10:15:00,68.9,59.5,30.19,WSW,240,1.0,2.0,72,0.00,,,0.00,Wunderground v.1.15,2013-08-17 14:15:00,
2013-08-17 10:20:00,68.7,59.3,30.19,WSW,240,1.0,1.0,72,0.00,,,0.00,Wunderground v.1.15,2013-08-17 14:20:00,
2013-08-17 10:30:00,70.0,60.2,30.19,WSW,240,0.0,2.0,71,0.00,,,0.00,Wunderground v.1.15,2013-08-17 14:30:00,
2013-08-17 10:35:00,70.1,59.9,30.19,WSW,240,0.0,2.0,70,0.00,,,0.00,Wunderground v.1.15,2013-08-17 14:35:00,
2013-08-17 10:40:00,70.8,60.5,30.19,WSW,240,0.0,2.0,70,0.00,,,0.00,Wunderground v.1.15,2013-08-17 14:40:00,
2013-08-17 10:45:00,71.6,60.1,30.19,WSW,239,0.0,2.0,67,0.00,,,0.00,Wunderground v.1.15,2013-08-17 14:45:00,
2013-08-17 10:50:00,72.0,58.7,30.19,NNW,345,1.0,1.0,63,0.00,,,0.00,Wunderground v.1.15,2013-08-17 14:50:00,
2013-08-17 11:00:00,72.7,57.1,30.19,SSE,165,0.0,2.0,58,0.00,,,0.00,Wunderground v.1.15,2013-08-17 15:00:00,
2013-08-17 11:05:00,73.0,58.8,30.19,SSW,193,1.0,2.0,61,0.00,,,0.00,Wunderground v.1.15,2013-08-17 15:05:00,
2013-08-17 11:10:00,73.2,57.5,30.19,North,4,1.0,3.0,58,0.00,,,0.00,Wunderground v.1.15,2013-08-17 15:10:00,
2013-08-17 11:15:00,73.0,53.3,30.19,NNW,344,1.0,3.0,50,0.00,,,0.00,Wunderground v.1.15,2013-08-17 15:15:00,
2013-08-17 11:20:00,74.0,57.3,30.19,East,92,0.0,3.0,56,0.00,,,0.00,Wunderground v.1.15,2013-08-17 15:20:00,
2013-08-17 11:25:00,74.2,56.0,30.19,NE,51,1.0,3.0,53,0.00,,,0.00,Wunderground v.1.15,2013-08-17 15:25:00,
2013-08-17 11:35:00,73.6,58.9,30.19,WSW,247,0.0,3.0,60,0.00,,,0.00,Wunderground v.1.15,2013-08-17 15:35:00,
2013-08-17 11:40:00,73.2,57.1,30.19,WNW,297,1.0,1.0,57,0.00,,,0.00,Wunderground v.1.15,2013-08-17 15:40:00,
2013-08-17 11:45:00,73.1,58.4,30.19,WNW,297,0.0,2.0,60,0.00,,,0.00,Wunderground v.1.15,2013-08-17 15:45:00,
2013-08-17 11:50:00,73.0,58.3,30.19,ESE,122,0.0,2.0,60,0.00,,,0.00,Wunderground v.1.15,2013-08-17 15:50:00,
2013-08-17 11:55:00,73.1,56.5,30.19,SSE,151,1.0,2.0,56,0.00,,,0.00,Wunderground v.1.15,2013-08-17 15:55:00,
2013-08-17 12:05:00,73.4,56.7,30.19,ESE,108,1.0,2.0,56,0.00,,,0.00,Wunderground v.1.15,2013-08-17 16:05:00,
2013-08-17 12:15:00,74.2,58.0,30.19,South,179,1.0,3.0,57,0.00,,,0.00,Wunderground v.1.15,2013-08-17 16:15:00,
2013-08-17 12:20:00,74.3,56.1,30.19,ESE,108,2.0,2.0,53,0.00,,,0.00,Wunderground v.1.15,2013-08-17 16:20:00,
2013-08-17 12:25:00,73.7,55.0,30.19,SSE,147,3.0,3.0,52,0.00,,,0.00,Wunderground v.1.15,2013-08-17 16:25:00,
2013-08-17 12:30:00,73.3,55.1,30.18,South,182,3.0,3.0,53,0.00,,,0.00,Wunderground v.1.15,2013-08-17 16:30:00,
2013-08-17 12:40:00,73.4,56.7,30.18,SE,141,2.0,2.0,56,0.00,,,0.00,Wunderground v.1.15,2013-08-17 16:40:00,
2013-08-17 12:45:00,72.9,55.8,30.18,ESE,119,2.0,2.0,55,0.00,,,0.00,Wunderground v.1.15,2013-08-17 16:45:00,
2013-08-17 12:50:00,72.8,56.7,30.18,SE,134,1.0,1.0,57,0.00,,,0.00,Wunderground v.1.15,2013-08-17 16:50:00,
2013-08-17 12:55:00,73.3,57.1,30.18,NE,36,1.0,2.0,57,0.00,,,0.00,Wunderground v.1.15,2013-08-17 16:55:00,
2013-08-17 13:05:00,74.3,57.1,30.18,WSW,246,1.0,2.0,55,0.00,,,0.00,Wunderground v.1.15,2013-08-17 17:05:00,
2013-08-17 13:15:00,75.1,57.8,30.17,West,277,2.0,4.0,55,0.00,,,0.00,Wunderground v.1.15,2013-08-17 17:15:00,
2013-08-17 13:20:00,75.8,57.4,30.17,SE,138,2.0,5.0,53,0.00,,,0.00,Wunderground v.1.15,2013-08-17 17:20:00,
2013-08-17 13:25:00,75.1,56.3,30.17,ESE,123,2.0,5.0,52,0.00,,,0.00,Wunderground v.1.15,2013-08-17 17:25:00,
2013-08-17 13:30:00,74.8,58.5,30.17,West,274,2.0,2.0,57,0.00,,,0.00,Wunderground v.1.15,2013-08-17 17:30:00,
2013-08-17 13:35:00,74.3,58.1,30.17,WNW,297,1.0,2.0,57,0.00,,,0.00,Wunderground v.1.15,2013-08-17 17:35:00,
2013-08-17 13:40:00,74.2,58.9,30.17,WNW,293,1.0,2.0,59,0.00,,,0.00,Wunderground v.1.15,2013-08-17 17:40:00,
2013-08-17 13:50:00,74.5,57.8,30.17,WNW,285,2.0,2.0,56,0.00,,,0.00,Wunderground v.1.15,2013-08-17 17:50:00,
2013-08-17 13:55:00,73.8,58.1,30.17,WNW,284,2.0,2.0,58,0.00,,,0.00,Wunderground v.1.15,2013-08-17 17:55:00,
2013-08-17 14:05:00,73.3,58.6,30.17,NW,305,1.0,2.0,60,0.00,,,0.00,Wunderground v.1.15,2013-08-17 18:05:00,
2013-08-17 14:10:00,73.8,57.1,30.17,ESE,120,0.0,2.0,56,0.00,,,0.00,Wunderground v.1.15,2013-08-17 18:10:00,
2013-08-17 14:15:00,74.2,58.0,30.16,SE,127,1.0,2.0,57,0.00,,,0.00,Wunderground v.1.15,2013-08-17 18:15:00,
2013-08-17 14:25:00,76.0,58.7,30.16,SSE,167,1.0,2.0,55,0.00,,,0.00,Wunderground v.1.15,2013-08-17 18:25:00,
2013-08-17 14:30:00,76.8,58.9,30.16,SSE,166,1.0,2.0,54,0.00,,,0.00,Wunderground v.1.15,2013-08-17 18:30:00,
2013-08-17 14:35:00,77.9,57.8,30.16,WNW,301,0.0,2.0,50,0.00,,,0.00,Wunderground v.1.15,2013-08-17 18:35:00,
2013-08-17 14:40:00,77.5,56.8,30.16,WSW,252,2.0,3.0,49,0.00,,,0.00,Wunderground v.1.15,2013-08-17 18:40:00,
2013-08-17 14:50:00,76.5,56.5,30.16,West,270,3.0,3.0,50,0.00,,,0.00,Wunderground v.1.15,2013-08-17 18:50:00,
2013-08-17 15:00:00,76.9,56.3,30.16,South,170,2.0,2.0,49,0.00,,,0.00,Wunderground v.1.15,2013-08-17 19:00:00,
2013-08-17 15:05:00,77.5,56.3,30.15,NNW,333,2.0,4.0,48,0.00,,,0.00,Wunderground v.1.15,2013-08-17 19:05:00,
2013-08-17 15:10:00,77.6,56.4,30.15,WNW,291,2.0,3.0,48,0.00,,,0.00,Wunderground v.1.15,2013-08-17 19:10:00,
2013-08-17 15:15:00,77.4,57.9,30.16,WNW,285,3.0,5.0,51,0.00,,,0.00,Wunderground v.1.15,2013-08-17 19:15:00,
2013-08-17 15:20:00,77.4,57.9,30.15,West,271,3.0,4.0,51,0.00,,,0.00,Wunderground v.1.15,2013-08-17 19:20:00,
2013-08-17 15:30:00,76.8,56.2,30.15,West,274,4.0,4.0,49,0.00,,,0.00,Wunderground v.1.15,2013-08-17 19:30:00,
2013-08-17 15:35:00,76.9,57.4,30.15,WSW,258,3.0,5.0,51,0.00,,,0.00,Wunderground v.1.15,2013-08-17 19:35:00,
2013-08-17 15:45:00,76.9,56.3,30.15,NNE,12,2.0,3.0,49,0.00,,,0.00,Wunderground v.1.15,2013-08-17 19:45:00,
2013-08-17 15:50:00,77.1,55.9,30.15,WSW,253,2.0,2.0,48,0.00,,,0.00,Wunderground v.1.15,2013-08-17 19:50:00,
2013-08-17 15:55:00,77.1,55.3,30.15,NW,309,3.0,3.0,47,0.00,,,0.00,Wunderground v.1.15,2013-08-17 19:55:00,
2013-08-17 16:05:00,76.2,57.3,30.15,NW,319,1.0,3.0,52,0.00,,,0.00,Wunderground v.1.15,2013-08-17 20:05:00,
2013-08-17 16:10:00,76.1,57.2,30.15,NW,324,1.0,2.0,52,0.00,,,0.00,Wunderground v.1.15,2013-08-17 20:10:00,
2013-08-17 16:15:00,75.5,57.2,30.15,NNW,343,2.0,2.0,53,0.00,,,0.00,Wunderground v.1.15,2013-08-17 20:15:00,
2013-08-17 16:20:00,75.6,55.6,30.15,NNW,343,1.0,1.0,50,0.00,,,0.00,Wunderground v.1.15,2013-08-17 20:20:00,
2013-08-17 16:30:00,75.8,58.0,30.15,NNW,343,0.0,2.0,54,0.00,,,0.00,Wunderground v.1.15,2013-08-17 20:30:00,
2013-08-17 16:40:00,76.2,57.8,30.15,NNW,342,0.0,2.0,53,0.00,,,0.00,Wunderground v.1.15,2013-08-17 20:40:00,
2013-08-17 16:45:00,76.6,59.2,30.15,ENE,70,0.0,2.0,55,0.00,,,0.00,Wunderground v.1.15,2013-08-17 20:45:00,
2013-08-17 16:50:00,77.1,56.5,30.15,South,170,0.0,2.0,49,0.00,,,0.00,Wunderground v.1.15,2013-08-17 20:50:00,
2013-08-17 16:55:00,77.9,55.5,30.15,WSW,239,0.0,2.0,46,0.00,,,0.00,Wunderground v.1.15,2013-08-17 20:55:00,
2013-08-17 17:05:00,78.6,56.1,30.15,WNW,295,1.0,2.0,46,0.00,,,0.00,Wunderground v.1.15,2013-08-17 21:05:00,
2013-08-17 17:15:00,78.2,56.9,30.15,SE,145,1.0,2.0,48,0.00,,,0.00,Wunderground v.1.15,2013-08-17 21:15:00,
2013-08-17 17:20:00,78.1,55.6,30.15,WSW,237,1.0,1.0,46,0.00,,,0.00,Wunderground v.1.15,2013-08-17 21:20:00,
2013-08-17 17:25:00,77.8,56.0,30.15,NNW,346,2.0,2.0,47,0.00,,,0.00,Wunderground v.1.15,2013-08-17 21:25:00,
2013-08-17 17:30:00,77.7,58.7,30.15,ESE,111,2.0,2.0,52,0.00,,,0.00,Wunderground v.1.15,2013-08-17 21:30:00,
2013-08-17 17:35:00,77.4,58.9,30.15,East,90,1.0,2.0,53,0.00,,,0.00,Wunderground v.1.15,2013-08-17 21:35:00,
2013-08-17 17:40:00,77.0,58.0,30.15,NNE,30,1.0,2.0,52,0.00,,,0.00,Wunderground v.1.15,2013-08-17 21:40:00,
2013-08-17 17:50:00,77.8,56.5,30.15,NNE,30,0.0,2.0,48,0.00,,,0.00,Wunderground v.1.15,2013-08-17 21:50:00,
2013-08-17 17:55:00,78.2,57.5,30.15,North,359,0.0,2.0,49,0.00,,,0.00,Wunderground v.1.15,2013-08-17 21:55:00,
2013-08-17 18:05:00,78.1,55.6,30.15,NW,314,1.0,2.0,46,0.00,,,0.00,Wunderground v.1.15,2013-08-17 22:05:00,
2013-08-17 18:10:00,77.9,55.5,30.15,NW,320,1.0,1.0,46,0.00,,,0.00,Wunderground v.1.15,2013-08-17 22:10:00,
2013-08-17 18:15:00,77.5,53.9,30.15,NW,308,1.0,4.0,44,0.00,,,0.00,Wunderground v.1.15,2013-08-17 22:15:00,
2013-08-17 18:25:00,76.8,54.5,30.15,North,8,1.0,2.0,46,0.00,,,0.00,Wunderground v.1.15,2013-08-17 22:25:00,
2013-08-17 18:30:00,76.6,57.1,30.15,North,359,0.0,2.0,51,0.00,,,0.00,Wunderground v.1.15,2013-08-17 22:30:00,
2013-08-17 18:35:00,76.4,57.5,30.15,North,359,0.0,2.0,52,0.00,,,0.00,Wunderground v.1.15,2013-08-17 22:35:00,
2013-08-17 18:40:00,76.3,58.9,30.16,North,359,0.0,2.0,55,0.00,,,0.00,Wunderground v.1.15,2013-08-17 22:40:00,
2013-08-17 18:45:00,76.0,59.2,30.15,North,359,0.0,2.0,56,0.00,,,0.00,Wunderground v.1.15,2013-08-17 22:45:00,
2013-08-17 18:55:00,74.9,58.6,30.15,North,359,0.0,2.0,57,0.00,,,0.00,Wunderground v.1.15,2013-08-17 22:55:00,
2013-08-17 19:05:00,73.7,58.9,30.15,North,359,0.0,2.0,60,0.00,,,0.00,Wunderground v.1.15,2013-08-17 23:05:00,
2013-08-17 19:10:00,73.0,58.3,30.15,North,359,0.0,2.0,60,0.00,,,0.00,Wunderground v.1.15,2013-08-17 23:10:00,
2013-08-17 19:15:00,72.2,58.0,30.15,ENE,59,0.0,2.0,61,0.00,,,0.00,Wunderground v.1.15,2013-08-17 23:15:00,
2013-08-17 19:20:00,71.4,56.8,30.15,ENE,59,0.0,2.0,60,0.00,,,0.00,Wunderground v.1.15,2013-08-17 23:20:00,
2013-08-17 19:30:00,70.3,55.8,30.15,ENE,59,0.0,2.0,60,0.00,,,0.00,Wunderground v.1.15,2013-08-17 23:30:00,
2013-08-17 19:35:00,69.7,56.1,30.15,ENE,59,0.0,2.0,62,0.00,,,0.00,Wunderground v.1.15,2013-08-17 23:35:00,
2013-08-17 19:45:00,68.7,56.0,30.16,ENE,59,0.0,2.0,64,0.00,,,0.00,Wunderground v.1.15,2013-08-17 23:45:00,
2013-08-17 19:50:00,68.1,55.9,30.16,ENE,59,0.0,2.0,65,0.00,,,0.00,Wunderground v.1.15,2013-08-17 23:50:00,
2013-08-17 19:55:00,67.6,55.8,30.16,ENE,59,0.0,2.0,66,0.00,,,0.00,Wunderground v.1.15,2013-08-17 23:55:00,
2013-08-17 20:05:00,66.6,54.9,30.16,ENE,59,0.0,2.0,66,0.00,,,0.00,Wunderground v.1.15,2013-08-18 00:05:00,
2013-08-17 20:10:00,66.3,55.4,30.16,ENE,59,0.0,2.0,68,0.00,,,0.00,Wunderground v.1.15,2013-08-18 00:10:00,
2013-08-17 20:20:00,65.7,54.8,30.16,ENE,59,0.0,2.0,68,0.00,,,0.00,Wunderground v.1.15,2013-08-18 00:20:00,
2013-08-17 20:25:00,65.4,53.7,30.17,ENE,59,0.0,2.0,66,0.00,,,0.00,Wunderground v.1.15,2013-08-18 00:25:00,
2013-08-17 20:30:00,65.2,53.6,30.17,ENE,59,0.0,2.0,66,0.00,,,0.00,Wunderground v.1.15,2013-08-18 00:30:00,
2013-08-17 20:40:00,65.0,54.6,30.16,ENE,59,0.0,2.0,69,0.00,,,0.00,Wunderground v.1.15,2013-08-18 00:40:00,
2013-08-17 20:45:00,64.9,54.5,30.16,ENE,59,0.0,2.0,69,0.00,,,0.00,Wunderground v.1.15,2013-08-18 00:45:00,
2013-08-17 20:50:00,64.7,54.7,30.16,ENE,59,0.0,2.0,70,0.00,,,0.00,Wunderground v.1.15,2013-08-18 00:50:00,
2013-08-17 21:00:00,64.4,54.8,30.16,ENE,59,1.0,1.0,71,0.00,,,0.00,Wunderground v.1.15,2013-08-18 01:00:00,
2013-08-17 21:05:00,64.4,55.2,30.17,ENE,59,0.0,2.0,72,0.00,,,0.00,Wunderground v.1.15,2013-08-18 01:05:00,
2013-08-17 21:10:00,64.4,55.6,30.17,ENE,59,0.0,2.0,73,0.00,,,0.00,Wunderground v.1.15,2013-08-18 01:10:00,
2013-08-17 21:15:00,64.4,55.6,30.17,ENE,59,0.0,2.0,73,0.00,,,0.00,Wunderground v.1.15,2013-08-18 01:15:00,
2013-08-17 21:25:00,64.1,55.6,30.16,ENE,59,0.0,2.0,74,0.00,,,0.00,Wunderground v.1.15,2013-08-18 01:25:00,
2013-08-17 21:30:00,63.8,55.7,30.17,ENE,59,0.0,2.0,75,0.00,,,0.00,Wunderground v.1.15,2013-08-18 01:30:00,
2013-08-17 21:35:00,63.5,55.8,30.17,ENE,59,0.0,2.0,76,0.00,,,0.00,Wunderground v.1.15,2013-08-18 01:35:00,
2013-08-17 21:40:00,63.1,55.8,30.17,ENE,59,0.0,2.0,77,0.00,,,0.00,Wunderground v.1.15,2013-08-18 01:40:00,
2013-08-17 21:45:00,62.7,55.7,30.17,ENE,59,0.0,2.0,78,0.00,,,0.00,Wunderground v.1.15,2013-08-18 01:45:00,
2013-08-17 21:55:00,62.1,55.9,30.18,ENE,59,0.0,2.0,80,0.00,,,0.00,Wunderground v.1.15,2013-08-18 01:55:00,
2013-08-17 22:00:00,61.8,55.6,30.17,ENE,59,0.0,2.0,80,0.00,,,0.00,Wunderground v.1.15,2013-08-18 02:00:00,
2013-08-17 22:10:00,61.4,55.5,30.17,ENE,59,1.0,2.0,81,0.00,,,0.00,Wunderground v.1.15,2013-08-18 02:10:00,
2013-08-17 22:15:00,61.4,55.5,30.18,ENE,59,1.0,2.0,81,0.00,,,0.00,Wunderground v.1.15,2013-08-18 02:15:00,
2013-08-17 22:20:00,61.4,55.5,30.18,ENE,59,0.0,2.0,81,0.00,,,0.00,Wunderground v.1.15,2013-08-18 02:20:00,
2013-08-17 22:30:00,61.6,55.7,30.18,ENE,59,0.0,2.0,81,0.00,,,0.00,Wunderground v.1.15,2013-08-18 02:30:00,
2013-08-17 22:35:00,61.5,55.3,30.17,ENE,59,0.0,2.0,80,0.00,,,0.00,Wunderground v.1.15,2013-08-18 02:35:00,
2013-08-17 22:40:00,61.6,55.0,30.17,ENE,59,0.0,2.0,79,0.00,,,0.00,Wunderground v.1.15,2013-08-18 02:40:00,
2013-08-17 22:45:00,61.8,55.2,30.17,ENE,59,0.0,2.0,79,0.00,,,0.00,Wunderground v.1.15,2013-08-18 02:45:00,
2013-08-17 22:55:00,61.5,55.3,30.17,ENE,59,0.0,2.0,80,0.00,,,0.00,Wunderground v.1.15,2013-08-18 02:55:00,
2013-08-17 23:05:00,61.3,55.4,30.18,ENE,59,0.0,2.0,81,0.00,,,0.00,Wunderground v.1.15,2013-08-18 03:05:00,
2013-08-17 23:10:00,61.2,55.3,30.18,ENE,59,0.0,2.0,81,0.00,,,0.00,Wunderground v.1.15,2013-08-18 03:10:00,
2013-08-17 23:15:00,61.4,55.5,30.18,East,97,0.0,2.0,81,0.00,,,0.00,Wunderground v.1.15,2013-08-18 03:15:00,
2013-08-17 23:20:00,61.4,55.5,30.18,East,97,0.0,2.0,81,0.00,,,0.00,Wunderground v.1.15,2013-08-18 03:20:00,
2013-08-17 23:25:00,61.3,55.4,30.18,East,97,0.0,2.0,81,0.00,,,0.00,Wunderground v.1.15,2013-08-18 03:25:00,
2013-08-17 23:35:00,60.9,55.4,30.18,East,97,0.0,2.0,82,0.00,,,0.00,Wunderground v.1.15,2013-08-18 03:35:00,
2013-08-17 23:40:00,60.8,55.3,30.18,East,97,0.0,2.0,82,0.00,,,0.00,Wunderground v.1.15,2013-08-18 03:40:00,
2013-08-17 23:45:00,60.5,55.0,30.18,East,97,0.0,2.0,82,0.00,,,0.00,Wunderground v.1.15,2013-08-18 03:45:00,
2013-08-17 23:55:00,59.9,55.4,30.18,NNW,347,1.0,2.0,85,0.00,,,0.00,Wunderground v.1.15,2013-08-18 03:55:00,